When you browse on this site, cookies collect data to enhance your experience and personalize the content and advertising you see.
Visit our Privacy Policy to learn more. By continuing to use the site, you agree to this use of cookies and data.
EN

Hourly Weather Ali Bayramli

Today, 12 July, Sunday

Time Temperature Precipitation Wind Pressure Humidity
00:00 +26°C° 0 mm 2 mps 756 mmHg 57%
01:00 +26°C° 0 mm 2 mps 756 mmHg 58%
02:00 +25°C° 0 mm 1 mps 755 mmHg 59%
03:00 +25°C° 0 mm 1 mps 755 mmHg 57%
04:00 +26°C° 0 mm 1 mps 755 mmHg 54%
05:00 +27°C° 0 mm 2 mps 755 mmHg 51%
06:00 +28°C° 0 mm 2 mps 755 mmHg 47%
07:00 +29°C° 0 mm 2 mps 755 mmHg 43%
08:00 +31°C° 0 mm 2 mps 755 mmHg 38%
09:00 +34°C° 0 mm 2 mps 755 mmHg 32%
10:00 +34°C° 0 mm 2 mps 755 mmHg 31%
11:00 +35°C° 0 mm 2 mps 754 mmHg 30%
12:00 +35°C° 0 mm 1 mps 754 mmHg 29%
13:00 +36°C° 0 mm 2 mps 754 mmHg 29%
14:00 +36°C° 0 mm 3 mps 753 mmHg 30%
15:00 +37°C° 0 mm 4 mps 752 mmHg 30%
16:00 +36°C° 0 mm 4 mps 752 mmHg 31%
17:00 +35°C° 0 mm 5 mps 752 mmHg 33%
18:00 +34°C° 0 mm 5 mps 752 mmHg 34%
19:00 +32°C° 0 mm 4 mps 752 mmHg 45%
20:00 +29°C° 0 mm 4 mps 752 mmHg 55%
21:00 +27°C° 0 mm 3 mps 752 mmHg 65%
22:00 +26°C° 0 mm 3 mps 752 mmHg 68%
23:00 +26°C° 0 mm 2 mps 752 mmHg 72%

Tomorrow, 13 July, Monday

Time Temperature Precipitation Wind Pressure Humidity
00:00 +25°C° 0 mm 1 mps 751 mmHg 75%
01:00 +25°C° 0 mm 1 mps 751 mmHg 75%
02:00 +25°C° 0 mm 1 mps 751 mmHg 75%
03:00 +25°C° 0 mm 1 mps 751 mmHg 75%
04:00 +25°C° 0 mm 1 mps 751 mmHg 72%
05:00 +26°C° 0 mm 1 mps 750 mmHg 70%
06:00 +27°C° 0 mm 1 mps 750 mmHg 67%
07:00 +29°C° 0 mm 2 mps 750 mmHg 59%
08:00 +31°C° 0 mm 3 mps 751 mmHg 50%
09:00 +34°C° 0 mm 4 mps 751 mmHg 42%
10:00 +34°C° 0.1 mm 5 mps 750 mmHg 41%
11:00 +35°C° 0.1 mm 6 mps 750 mmHg 41%
12:00 +36°C° 0.1 mm 6 mps 750 mmHg 40%
13:00 +36°C° 0 mm 7 mps 749 mmHg 40%
14:00 +36°C° 0 mm 7 mps 749 mmHg 41%
15:00 +36°C° 0 mm 7 mps 749 mmHg 41%
16:00 +35°C° 0 mm 6 mps 749 mmHg 44%
17:00 +34°C° 0 mm 6 mps 749 mmHg 46%
18:00 +33°C° 0 mm 5 mps 749 mmHg 48%
19:00 +32°C° 0 mm 5 mps 749 mmHg 55%
20:00 +29°C° 0 mm 4 mps 749 mmHg 61%
21:00 +28°C° 0 mm 3 mps 749 mmHg 68%
22:00 +28°C° 0 mm 2 mps 749 mmHg 69%
23:00 +27°C° 0 mm 2 mps 749 mmHg 70%

Day after tomorrow, 14 July, Tuesday

Time Temperature Precipitation Wind Pressure Humidity
00:00 +27°C° 0 mm 2 mps 749 mmHg 71%
01:00 +27°C° 0 mm 1 mps 749 mmHg 73%
02:00 +26°C° 0 mm 1 mps 749 mmHg 74%
03:00 +26°C° 0 mm 1 mps 749 mmHg 76%
04:00 +26°C° 0 mm 1 mps 750 mmHg 74%
05:00 +27°C° 0 mm 1 mps 750 mmHg 72%
06:00 +28°C° 0 mm 1 mps 751 mmHg 69%
07:00 +29°C° 0 mm 1 mps 751 mmHg 64%
08:00 +30°C° 0 mm 2 mps 751 mmHg 59%
09:00 +31°C° 0 mm 2 mps 752 mmHg 54%
10:00 +34°C° 0 mm 2 mps 752 mmHg 49%
11:00 +34°C° 0 mm 1 mps 752 mmHg 43%
12:00 +36°C° 0 mm 1 mps 751 mmHg 38%
13:00 +37°C° 0 mm 2 mps 751 mmHg 37%
14:00 +38°C° 0 mm 3 mps 751 mmHg 35%
15:00 +39°C° 0 mm 3 mps 751 mmHg 34%
16:00 +37°C° 1.6 mm 4 mps 751 mmHg 40%
17:00 +35°C° 1.6 mm 5 mps 752 mmHg 47%
18:00 +33°C° 1.6 mm 6 mps 752 mmHg 53%
19:00 +32°C° 1.5 mm 5 mps 752 mmHg 53%
20:00 +32°C° 1.5 mm 5 mps 753 mmHg 54%
21:00 +30°C° 1.5 mm 4 mps 753 mmHg 54%
22:00 +30°C° 0.5 mm 4 mps 753 mmHg 56%
23:00 +29°C° 0.5 mm 3 mps 753 mmHg 58%

15 July, Wednesday

Time Temperature Precipitation Wind Pressure Humidity
00:00 +29°C° 0.5 mm 2 mps 754 mmHg 60%
01:00 +28°C° 0.2 mm 2 mps 754 mmHg 63%
02:00 +28°C° 0.2 mm 1 mps 754 mmHg 65%
03:00 +28°C° 0.2 mm 1 mps 755 mmHg 67%
04:00 +28°C° 0 mm 1 mps 755 mmHg 66%
05:00 +28°C° 0 mm 2 mps 755 mmHg 65%
06:00 +28°C° 0 mm 2 mps 755 mmHg 65%
07:00 +30°C° 0 mm 2 mps 756 mmHg 59%
08:00 +31°C° 0 mm 1 mps 756 mmHg 54%
09:00 +32°C° 0 mm 1 mps 756 mmHg 48%
10:00 +34°C° 0 mm 2 mps 756 mmHg 45%
11:00 +35°C° 0 mm 2 mps 756 mmHg 41%
12:00 +37°C° 0 mm 2 mps 755 mmHg 37%
13:00 +37°C° 0 mm 4 mps 755 mmHg 37%
14:00 +37°C° 0 mm 5 mps 755 mmHg 36%
15:00 +38°C° 0 mm 6 mps 755 mmHg 36%
16:00 +36°C° 0 mm 7 mps 755 mmHg 40%
17:00 +35°C° 0 mm 8 mps 755 mmHg 45%
18:00 +33°C° 0 mm 9 mps 755 mmHg 49%
19:00 +33°C° 0.1 mm 8 mps 755 mmHg 51%
20:00 +32°C° 0.1 mm 7 mps 755 mmHg 53%
21:00 +30°C° 0.1 mm 6 mps 755 mmHg 55%
22:00 +30°C° 0 mm 5 mps 755 mmHg 57%
23:00 +29°C° 0 mm 5 mps 755 mmHg 59%

16 July, Thursday

Time Temperature Precipitation Wind Pressure Humidity
00:00 +29°C° 0 mm 4 mps 755 mmHg 61%
01:00 +29°C° 0 mm 4 mps 755 mmHg 63%
02:00 +28°C° 0 mm 3 mps 755 mmHg 65%
03:00 +28°C° 0 mm 2 mps 755 mmHg 66%
04:00 +28°C° 0 mm 2 mps 755 mmHg 66%
05:00 +28°C° 0 mm 2 mps 755 mmHg 65%
06:00 +28°C° 0 mm 2 mps 755 mmHg 64%
07:00 +30°C° 0 mm 3 mps 755 mmHg 57%
08:00 +32°C° 0 mm 4 mps 755 mmHg 50%
09:00 +34°C° 0 mm 4 mps 755 mmHg 43%
10:00 +35°C° 0 mm 4 mps 755 mmHg 40%
11:00 +36°C° 0 mm 4 mps 754 mmHg 37%
12:00 +37°C° 0 mm 4 mps 754 mmHg 33%
13:00 +37°C° 0 mm 5 mps 754 mmHg 33%
14:00 +38°C° 0 mm 6 mps 753 mmHg 32%
15:00 +38°C° 0 mm 7 mps 753 mmHg 32%
16:00 +36°C° 0 mm 7 mps 753 mmHg 34%
17:00 +35°C° 0 mm 7 mps 753 mmHg 36%
18:00 +34°C° 0 mm 7 mps 753 mmHg 39%
19:00 +33°C° 0 mm 6 mps 753 mmHg 42%
20:00 +32°C° 0 mm 6 mps 753 mmHg 46%
21:00 +30°C° 0 mm 5 mps 753 mmHg 50%
22:00 +29°C° 0 mm 4 mps 753 mmHg 53%
23:00 +29°C° 0 mm 4 mps 753 mmHg 56%

17 July, Friday

Time Temperature Precipitation Wind Pressure Humidity
00:00 +28°C° 0 mm 3 mps 753 mmHg 59%
01:00 +28°C° 0 mm 3 mps 753 mmHg 61%
02:00 +28°C° 0 mm 2 mps 753 mmHg 62%
03:00 +27°C° 0 mm 2 mps 753 mmHg 64%
04:00 +28°C° 0 mm 2 mps 753 mmHg 63%
05:00 +28°C° 0 mm 1 mps 753 mmHg 63%
06:00 +28°C° 0 mm 1 mps 752 mmHg 62%
07:00 +29°C° 0 mm 1 mps 753 mmHg 57%
08:00 +30°C° 0 mm 1 mps 753 mmHg 52%
09:00 +31°C° 0 mm 1 mps 753 mmHg 46%
10:00 +34°C° 0 mm 2 mps 753 mmHg 43%
11:00 +35°C° 0 mm 2 mps 753 mmHg 39%
12:00 +36°C° 0 mm 2 mps 752 mmHg 35%
13:00 +36°C° 0 mm 4 mps 752 mmHg 35%
14:00 +36°C° 0 mm 5 mps 752 mmHg 35%
15:00 +38°C° 0 mm 7 mps 752 mmHg 35%
16:00 +35°C° 0 mm 7 mps 752 mmHg 38%
17:00 +34°C° 0 mm 8 mps 752 mmHg 41%
18:00 +33°C° 0 mm 8 mps 752 mmHg 45%
19:00 +32°C° 0 mm 8 mps 752 mmHg 47%
20:00 +30°C° 0 mm 7 mps 753 mmHg 50%
21:00 +29°C° 0 mm 7 mps 753 mmHg 52%
22:00 +29°C° 0 mm 6 mps 753 mmHg 53%
23:00 +29°C° 0 mm 6 mps 753 mmHg 54%
Show more